Simultaneous Nadir Overpasses (SNOs) Predictions

Prediction of SNOs near US between AQUA and NPP Satellite Orbit:

Table of predicted SNOs near US for the next 10.0 days since TLE Epoch: 2/7/2020
Index Date (AQUA) Time (AQUA) AQUA Lat,Lon Date (NPP) Time (NPP) NPP Lat,Lon Distance(km) Time Diff (sec)
1 02/13/2020 07:18:52 49.88, -75.98 02/13/2020 07:19:42 50.31, -78.15 161.59 50
2 02/13/2020 08:57:45 49.89,-100.70 02/13/2020 09:01:10 50.42,-103.47 206.08 205
3 02/15/2020 18:17:02 49.96, -80.19 02/15/2020 18:09:58 49.68, -81.69 111.31 424
4 02/15/2020 19:55:55 49.95,-104.91 02/15/2020 19:51:26 49.57,-107.01 156.57 269
5 02/15/2020 21:31:05 36.65,-125.00 02/15/2020 21:29:05 36.19,-127.51 230.85 120




NCC Satellite Simultaneous Nadir Overpasses (SNOs) Prediction Service
